"Pseudo-MPEC" for A11GjiN

Created 2026 Sep 4 2:35:05 UT using Find_Orb

Click here for an explanation of pseudo-MPECs

 
 Astrometry: 
     A11GjiN*0C2026 09 03.41863622 08 45.403-01 14 00.13   ~93IK 18.81oVNEOCPT08
     A11GjiN 0C2026 09 03.42279722 08 41.088-01 15 20.45   ~93IK 19.21oVNEOCPT08
     A11GjiN 0C2026 09 03.42553622 08 38.230-01 16 13.69   ~93IK 18.60oVNEOCPT08
     A11GjiN 0C2026 09 03.44145122 08 21.550-01 21 28.58   ~93IK 18.81oVNEOCPT08
     A11GjiN KB2026 09 03.79344122 03 11.74 -03 45 17.5    ~93JZ 19.3 VZNEOCP106
     A11GjiN KB2026 09 03.79586122 03 08.58 -03 46 27.1    ~93JZ 19.2 VZNEOCP106
     A11GjiN KB2026 09 03.79839122 03 05.31 -03 47 40.3    ~93JZ 19.2 VZNEOCP106
     A11GjiN KB2026 09 03.80106922 03 01.76 -03 48 57.5    ~93JZ 19.2 VZNEOCP106
     A11GjiN KB2026 09 03.84374422 02 03.622-04 10 03.68   ~93L5 18.2 GXNEOCP595
     A11GjiN KB2026 09 03.84375622 02 10.73 -04 09 47.3    ~93KZ 18.1 GXNEOCPI93
     A11GjiN KC2026 09 03.84539122 02 03.30 -04 10 37.9    ~93Ko 18.5 VZNEOCP104
     A11GjiN KB2026 09 03.84596522 02 07.66 -04 10 54.8    ~93KZ 18.3 GXNEOCPI93
     A11GjiN KB2026 09 03.84816522 02 04.58 -04 12 01.8    ~93KZ 18.0 GXNEOCPI93
     A11GjiN KC2026 09 03.84944722 01 57.50 -04 12 41.7    ~93Ko 18.6 VZNEOCP104
     A11GjiN KB2026 09 03.85032322 02 01.56 -04 13 07.7    ~93KZ 18.2 GXNEOCPI93
     A11GjiN KB2026 09 03.85453122 01 48.182-04 15 33.70   ~93L5 18.2 GXNEOCP595
     A11GjiN KB2026 09 03.85759622 01 43.735-04 17 07.98   ~93L5 18.3 GXNEOCP595
     A11GjiN KB2026 09 03.86066022 01 39.278-04 18 42.98   ~93L5 18.2 GXNEOCP595
     A11GjiN KB2026 09 03.86344922 01 36.302-04 19 50.23   ~93LK 19.0 GWNEOCPL47
     A11GjiN KB2026 09 03.86564822 01 33.091-04 20 58.27   ~93LK 19.0 GWNEOCPL47
     A11GjiN KB2026 09 03.87005822 01 26.587-04 23 16.01   ~93LZ 18.6 GWNEOCPL47
     A11GjiN KB2026 09 03.87226922 01 23.359-04 24 23.65   ~93LZ 18.6 GWNEOCPL47
     A11GjiN KB2026 09 03.88459322 01 11.834-04 31 31.15   ~93M5 18.4 GXNEOCPZ43
     A11GjiN 1C2026 09 03.88697 22 00 44.46 -04 32 23.9    ~93M5 19.2 GXNEOCPC40
     A11GjiN 1C2026 09 03.88972 22 00 40.19 -04 33 50.2    ~93M5 17.3 GXNEOCPC40
     A11GjiN KC2026 09 03.89117822 01 02.74 -04 34 22.3    ~93M5 18.5 GXNEOCP958
     A11GjiN KB2026 09 03.89171422 01 01.289-04 35 19.28   ~93M5 18.4 GXNEOCPZ43
     A11GjiN 1C2026 09 03.89247 22 00 35.97 -04 35 18.9    ~93M5 18.5 GXNEOCPC40
     A11GjiN KC2026 09 03.89709022 00 53.73 -04 37 32.9    ~93M5 18.8 GXNEOCP958
     A11GjiN KB2026 09 03.89896122 00 50.426-04 39 13.28   ~93M5 18.2 GXNEOCPZ43
     A11GjiN KC2026 09 03.90300522 00 44.70 -04 40 44.1    ~93M5 18.1 GXNEOCP958
     A11GjiN KB2026 09 04.05873821 57 19.286-06 11 14.32   ~9425 18.2 VZNEOCPW05
     A11GjiN KB2026 09 04.06213021 57 13.313-06 13 28.42   ~9425 18.2 VZNEOCPW05
     A11GjiN KB2026 09 04.06541721 57 07.402-06 15 39.20   ~9425 18.1 VZNEOCPW05

Station data:
(104) San Marcello Pistoiese  (N44.064178 E10.803750)  Italy.  Observers P.
   Bacci, M. Maestripieri. Measurers P. Bacci, L. Tesi, G. Fagioli. 0.60-m
   reflector + CCD.
(106) Črni Vrh  (N45.945905 E14.071100)  Slovenia.  Observer J. Skvarč. 0.6-m
   f/3.3 Deltagraph + CCD.
(595) Farra d'Isonzo  (N45.915731 E13.525780)  Italy.  Observers S. Aschi, E.
   Pettarin, G. Panterotto. Measurers S. Aschi, E. Pettarin. 0.40-m f/5.15
   reflector + CCD.
(958) Observatoire de Dax  (N43.693381 W1.030530)  France.  Observer P.
   Dupouy. 0.32-m Schmidt-Cassegrain.
(C40) Kuban State University Astrophysical Observatory  (N45.019544
   E39.030800)  Russia.  Observer A. Ivanov. 0.51-m f/8 reflector + CCD.
(I93) St Pardon de Conques  (N44.558670 W0.202960)  France.  Observers F.
   Losse, W. D'Anna. Measurer F. Losse. 0.40-m f/3.7 reflector + CCD.
(L47) Osservatorio Astronomico, Piobbico  (N43.585893 E12.507110)  Italy.
   Observers A. Teseo, A. Annamelia. 0.20-m f/6.3 Schmidt-Cassegrain + CCD.
(T08) ATLAS-MLO, Mauna Loa  (N19.536150 W155.576050)  US/Hawaii.  Observers
   L. Denneau, R. Siverd, J. Tonry, H. Weiland. Measurers L. Denneau, N.
   Erasmus, A. Fitzsimmons, J. Robinson, R. Siverd, J. Tonry, H. Weiland.
   0.5-m f/2.0 Schmidt + CCD.
(W05) Tree Gate Farm Observatory, Starkville  (N33.347635 W88.732810)
   US/Mississippi.  Observer J.-F. Gout. 0.5-m f/1.5 reflector + CMOS.
(Z43) Landehen  (N48.434102 W2.537840)  France.  Observer C. Ratinaud. 0.25-m
   f/4.7 Reflector + CCD.

Orbital elements:  A11GjiN
   Perihelion 2026 Nov 5.910595 +/- 0.0144 TT = 21:51:15.4 (JD 2461350.410595)
Epoch 2026 Sep  4.0 TT = JDT 2461287.5   Earth MOID: 0.0020   Ve: 0.0537
M 311.749843471 +/- 0.028           (J2000 ecliptic)             AutoNEOCP
n   0.766963914 +/- 0.000276        Peri.  274.309681 +/- 0.0043
a   1.182005313 +/- 0.000283        Node   161.554771 +/- 0.00010
e   0.40946187 +/- 0.000241         Incl.    7.309048 +/- 0.0046
P   1.285/469.374d         H 27.57  G  0.15   U  7.2
q 0.698019202 +/- 0.00012    Q 1.665991424 +/- 0.000683
From 34 observations 2026 Sept. 3-4 (15.5 hr); mean residual 0".40
Residuals in arcseconds: 
260903 T08  .34+  .16-    260903 I93  .18+  .30+    260903 C40  .26-  .50+    
260903 T08  .23+  .47+    260903 104  .07-  .35-    260903 958  .17+  .04-    
260903 T08  .01+  .68+    260903 I93  .25+  .48+    260903 Z43  .14-  .06-    
260903 T08  .72-  .98-    260903 595  .05+  .20+    260903 C40  .02+  .36-    
260903 106  .06-  .13-    260903 595  .06-  .39+    260903 958  .43-  .14-    
260903 106  .23-  .07-    260903 595  .01-  .16+    260903 Z43  .04+  .13-    
260903 106  .32+  .25-    260903 L47  .82-  .80-    260903 958  .05+  .55+    
260903 106  .16-  .06+    260903 L47  .36-  .41-    260904 W05  .60-  .33-    
260903 595  .10-  .30+    260903 L47  .11+  .42-    260904 W05  .37+  .08+    
260903 I93  .31+  .30+    260903 L47  1.1+  1.3+    260904 W05  .12+  .21+    
260903 104  .06+  .38-    260903 Z43  .37-  .09+    
260903 I93  .32+  .10+    260903 C40  .39+  .77-    

Ephemerides (geocentric):
Date (UTC) HH   RA             Dec           delta  r     elong  mag " sig PA
---- --------  ------------   ------------  ------ ------ -----  --- --------
2026 09 04 03  21 54 48.914   -06 47 38.18  .01003 1.0183 166.1 18.4 .541 133
2026 09 04 04  21 53 32.807   -07 17 50.98  .00976 1.0180 165.8 18.4 .577 128
2026 09 04 05  21 52 12.035   -07 49 49.64  .00948 1.0177 165.4 18.3 .619 122
2026 09 04 06  21 50 46.160   -08 23 43.13  .00920 1.0174 165.0 18.3 .669 117
2026 09 04 07  21 49 14.690   -08 59 41.37  .00892 1.0171 164.5 18.2 .730 111
2026 09 04 08  21 47 37.069   -09 37 55.38  .00865 1.0168 164.0 18.2 .804 106
2026 09 04 09  21 45 52.665   -10 18 37.37  .00838 1.0165 163.5 18.1 .894 100
2026 09 04 10  21 44 00.759   -11 02 00.92  .00811 1.0162 162.8 18.1 1.00  95
2026 09 04 11  21 42 00.528   -11 48 21.12  .00784 1.0160 162.2 18.0 1.14  89
2026 09 04 12  21 39 51.027   -12 37 54.74  .00757 1.0157 161.4 17.9 1.30  85
2026 09 04 13  21 37 31.165   -13 31 00.47  .00730 1.0154 160.6 17.9 1.49  80
2026 09 04 14  21 34 59.679   -14 27 59.01  .00704 1.0151 159.6 17.8 1.72  76
2026 09 04 15  21 32 15.099   -15 29 13.39  .00678 1.0148 158.6 17.8 2.00  72
2026 09 04 16  21 29 15.701   -16 35 09.04  976555 1.0145 157.5 17.7 2.33  69
2026 09 04 17  21 25 59.459   -17 46 14.00  938831 1.0142 156.3 17.7 2.72  66
2026 09 04 18  21 22 23.972   -19 02 58.96  901727 1.0139 155.0 17.7 3.18  63
2026 09 04 19  21 18 26.387   -20 25 57.22  865321 1.0136 153.5 17.6 3.73  61
2026 09 04 20  21 14 03.280   -21 55 44.40  829706 1.0133 151.8 17.6 4.37  59
2026 09 04 21  21 09 10.529   -23 32 57.88  794988 1.0130 150.0 17.5 5.12  57
2026 09 04 22  21 03 43.136   -25 18 15.71  761290 1.0127 148.0 17.5 6.01  55
2026 09 04 23  20 57 35.003   -27 12 14.78  728754 1.0124 145.9 17.4 7.04  54
2026 09 05 00  20 50 38.653   -29 15 27.97  697543 1.0121 143.4 17.4 8.23  54
2026 09 05 01  20 42 44.871   -31 28 19.78  667843 1.0118 140.8 17.4 9.61  53
2026 09 05 02  20 33 42.272   -33 50 59.99  639865 1.0115 137.9 17.4 11.2  53
2026 09 05 03  20 23 16.786   -36 23 14.78  613845 1.0112 134.7 17.4 13.0  54
2026 09 05 04  20 11 11.103   -39 04 14.86  590042 1.0109 131.3 17.4 15.0  54
2026 09 05 05  19 57 04.199   -41 52 20.43  568734 1.0106 127.5 17.4 17.1  56
2026 09 05 06  19 40 31.198   -44 44 43.77  550214 1.0103 123.5 17.5 19.5  58
2026 09 05 07  19 21 04.149   -47 37 11.65  534770 1.0100 119.1 17.5 21.9  61
2026 09 05 08  18 58 14.712   -50 23 52.63  522676 1.0097 114.6 17.6 24.3  64
2026 09 05 09  18 31 40.183   -52 57 18.11  514169 1.0094 109.9 17.7 26.6  69
2026 09 05 10  18 01 14.023   -55 08 50.08  509428 1.0091 105.0 17.9 28.7  75
2026 09 05 11  17 27 19.612   -56 49 48.35  508559 1.0089 100.1 18.0 30.4  82
2026 09 05 12  16 51 00.568   -57 53 17.06  511581 1.0086  95.2 18.2 31.7  89
2026 09 05 13  16 13 56.665   -58 15 58.92  518427 1.0083  90.3 18.4 32.6  97
2026 09 05 14  15 38 00.341   -57 59 17.95  528947 1.0080  85.7 18.7 33.1 104
2026 09 05 15  15 04 45.236   -57 08 47.20  542928 1.0077  81.2 18.9 33.1 111
2026 09 05 16  14 35 06.348   -55 52 21.00  560110 1.0074  77.0 19.2 32.7 117
2026 09 05 17  14 09 19.759   -54 18 15.31  580208 1.0071  73.1 19.5 32.1 123
2026 09 05 18  13 47 14.507   -52 33 46.01  602930 1.0068  69.5 19.8 31.3 127
2026 09 05 19  13 28 26.010   -50 44 34.93  627990 1.0065  66.1 20.1 30.3 131
2026 09 05 20  13 12 25.641   -48 54 48.95  655120 1.0062  63.0 20.4 29.2 134
2026 09 05 21  12 58 45.943   -47 07 14.75  684073 1.0059  60.2 20.7 28.1 137
2026 09 05 22  12 47 02.810   -45 23 37.47  714627 1.0056  57.6 21?? 27.0 139
2026 09 05 23  12 36 56.008   -43 44 57.81  746586 1.0053  55.2 21?? 26.0 141
2026 09 06 00  12 28 08.939   -42 11 45.72  779775 1.0050  53.0 21?? 24.9 142
2026 09 06 01  12 20 28.132   -40 44 10.67  814045 1.0047  51.0 21?? 24.0 144
2026 09 06 02  12 13 42.686   -39 22 08.93  849263 1.0044  49.2 22?? 23.0 145